[[{"header":{"parameterUnit":"m.s-1","parameterCategory":1,"la1":30.2992,"la2":30.254,"lo1":-89.0895,"lo2":-89.0443,"dy":0.0025,"dx":0.0025,"nx":19,"ny":19,"refTime":"2026-04-16T21:00:00:Z","depth":0,"parameterNumber":2,"parameterNumberName":"U-component_of_WINDS"},"data":[0,0,0,-0.0152,-0.0152,-0.0119,-0.0119,-0.0071,-0.0071,0,0,0,0,0,0,0,0,0,0,0,-0.0159,-0.0159,-0.0152,-0.0152,-0.0119,-0.0119,-0.0071,-0.0071,0,0,0,0,0,0,0,0,0,0,0,-0.0159,-0.0159,-0.0158,-0.0151,-0.0119,-0.0119,-0.0071,-0.0098,0,0,0,0,0,0,0,0,0,0,-0.0131,-0.0134,-0.0159,-0.0158,-0.0151,-0.0119,-0.0118,-0.0099,-0.0096,-0.0084,0,-0.0072,0,-0.0071,-0.0067,-0.0067,0,0,0,-0.0154,-0.0136,-0.0131,-0.0158,-0.0151,-0.0119,-0.0134,-0.0098,-0.0094,-0.008,-0.0072,-0.007,-0.007,-0.0067,-0.0067,0.001,0.001,0,0,-0.0155,-0.0151,-0.0133,-0.0128,-0.0133,-0.0135,-0.0133,-0.0096,-0.0086,-0.0072,-0.0069,-0.0069,-0.0067,-0.0066,0.001,0.001,0,0,0,-0.0159,-0.0152,-0.0147,-0.013,-0.0125,-0.0134,-0.0132,-0.0088,-0.0087,-0.0069,-0.0069,-0.0066,-0.0066,0.0009,0.001,0.0036,0,0,0,-0.016,-0.0155,-0.0148,-0.0145,-0.0125,-0.0106,-0.0125,-0.0089,-0.0085,-0.0069,-0.0066,-0.0065,0.0009,0.0009,0.0035,0.0049,0,0,0,-0.0162,-0.0155,-0.0149,-0.0145,-0.0131,-0.0106,-0.0103,-0.0089,-0.0085,-0.0067,-0.0065,0.0008,0.0009,0.0033,0.0046,0.007,0,0,0,-0.0163,-0.0125,-0.0149,-0.0107,-0.0131,-0.0091,-0.0104,-0.0073,-0.0055,-0.0066,0.0009,0.001,0.0032,0.0044,0.0068,0.0091,0.0101,0,0,-0.0113,-0.0119,-0.0095,-0.0115,-0.0069,-0.0096,-0.0047,-0.0033,-0.0035,-0.0005,-0.0003,0.0035,0.0046,0.007,0.0153,0.0161,0,0,0,-0.0077,-0.006,-0.0049,-0.0031,-0.0021,-0.0011,-0.0006,-0.0002,0.0023,-0.0019,0.005,0.0056,0.007,0.0081,0.0087,0.0099,0.0015,0.0015,0.0014,0.0001,-0.0005,0.0034,0.0032,0.0049,0.0052,0.0066,0.0072,0.0063,0.0079,0.0088,0.014,0.0153,0.0158,0.0169,0.0099,0.0099,0.0099,0.01,0.0074,0.0098,0.0081,0.0114,0.0107,0.0134,0.0139,0.013,0.0155,0.0133,0.0145,0.0122,0.0166,0.0176,0.0101,0.0101,0.0101,0.0101,0.0101,0.0125,0.0135,0.0139,0.0162,0.0181,0.0177,0.02,0.0193,0.0187,0.0199,0.0207,0.0207,0.0206,0.0203,0.0203,0.0203,0.0204,0.0204,0.0204,0.0177,0.018,0.0201,0.0213,0.0222,0.0234,0.0236,0.0245,0.0253,0.0246,0.0247,0.0235,0.0171,0.0156,0.0207,0.0206,0.0206,0.0205,0.0205,0.0255,0.0236,0.0267,0.0276,0.0289,0.0307,0.0297,0.0316,0.0322,0.0334,0.0319,0.0272,0.0266,0.0261,0.0248,0.032,0.032,0.032,0.032,0.0299,0.0294,0.0324,0.0338,0.0352,0.0345,0.0381,0.0382,0.0381,0.0384,0.0372,0.0354,0.0349,0.0346,0.0339,0.0327,0.0417,0.0417,0.0417,0.0346,0.0342,0.0374,0.0371,0.038,0.0388,0.042,0.0438,0.0432,0.0421,0.0386,0.0382,0.0353,0.0344,0.0334,0.0323,0.03,0,0]},{"header":{"parameterUnit":"m.s-1","parameterCategory":1,"la1":30.2992,"la2":30.254,"lo1":-89.0895,"lo2":-89.0443,"dy":0.0025,"dx":0.0025,"nx":19,"ny":19,"refTime":"2026-04-16T21:00:00:Z","depth":0,"parameterNumber":3,"parameterNumberName":"V-component_of_WINDS"},"data":[0,0,0,4.0703,4.0704,4.0762,4.0762,4.0849,4.085,0,0,0,0,0,0,0,0,0,0,0,4.0696,4.0697,4.0703,4.0704,4.0762,4.0762,4.0849,4.085,0,0,0,0,0,0,0,0,0,0,0,4.0696,4.0697,4.0698,4.0705,4.0762,4.0762,4.0849,4.08,0,0,0,0,0,0,0,0,0,0,4.0742,4.0746,4.0697,4.0698,4.0705,4.0762,4.0762,4.0797,4.0803,4.083,0,4.0858,0,4.0856,4.0857,4.0857,0,0,0,4.0696,4.0741,4.0748,4.0698,4.0706,4.0762,4.0733,4.08,4.0807,4.0838,4.0859,4.0862,4.0857,4.0858,4.0858,4.1047,4.1048,0,0,4.0693,4.0711,4.0744,4.0753,4.0747,4.0732,4.0735,4.0804,4.0828,4.086,4.0864,4.0859,4.0858,4.0859,4.1045,4.1047,0,0,0,4.0689,4.0709,4.0714,4.075,4.0759,4.0734,4.0738,4.0825,4.0825,4.0865,4.086,4.0859,4.086,4.1044,4.1046,4.1129,0,0,0,4.0687,4.0707,4.0713,4.0725,4.0758,4.0793,4.0757,4.082,4.0827,4.0859,4.0859,4.0861,4.1043,4.1045,4.1124,4.1165,0,0,0,4.0689,4.0707,4.072,4.0726,4.0751,4.0792,4.0795,4.0821,4.0825,4.0858,4.0862,4.1042,4.1045,4.1119,4.1157,4.1221,0,0,0,4.0695,4.079,4.0721,4.0825,4.0751,4.0843,4.0795,4.0861,4.0899,4.086,4.1043,4.1046,4.1117,4.1152,4.1216,4.128,4.1308,0,0,4.0825,4.0806,4.0866,4.0806,4.0916,4.0833,4.0953,4.0969,4.0953,4.1016,4.102,4.1125,4.1156,4.122,4.1456,4.1479,0,0,0,4.0913,4.0957,4.0982,4.102,4.1036,4.1054,4.1049,4.1055,4.1108,4.099,4.1165,4.1183,4.1219,4.1249,4.1268,4.1299,4.106,4.106,4.1059,4.1123,4.1102,4.12,4.1185,4.1223,4.1219,4.1247,4.1254,4.1218,4.126,4.1279,4.1425,4.146,4.1475,4.1507,4.1309,4.131,4.131,4.131,4.1313,4.1371,4.1325,4.1404,4.138,4.1444,4.1444,4.1417,4.1474,4.1408,4.144,4.1371,4.15,4.1527,4.1316,4.1315,4.1314,4.1314,4.1313,4.1448,4.1473,4.1481,4.1536,4.158,4.1561,4.1619,4.1593,4.157,4.1601,4.1619,4.1617,4.1614,4.1611,4.1611,4.1612,4.1612,4.1613,4.1613,4.1587,4.1593,4.1646,4.1673,4.1696,4.1722,4.172,4.1741,4.1757,4.1734,4.1734,4.1695,4.1517,4.1473,4.1621,4.1619,4.1618,4.1618,4.1617,4.1788,4.174,4.1822,4.1845,4.1876,4.1922,4.189,4.1935,4.1948,4.1978,4.1933,4.1804,4.1783,4.1767,4.1731,4.1937,4.1937,4.1937,4.1937,4.1904,4.1891,4.1971,4.201,4.2045,4.2025,4.2118,4.2118,4.2109,4.2116,4.2082,4.2032,4.2017,4.2004,4.1984,4.1949,4.2206,4.2206,4.2206,4.2028,4.2018,4.2103,4.2097,4.2119,4.2139,4.2226,4.2272,4.2251,4.2217,4.2121,4.211,4.2028,4.2002,4.1966,4.1935,4.1872,0,0]}]]